When you browse on this site, cookies collect data to enhance your experience and personalize the content and advertising you see.
Visit our Privacy Policy to learn more. By continuing to use the site, you agree to this use of cookies and data.
  • In Lithuania
  • List of Countries
  • For 7 days
  • Water Temperature
  • Weather Map
  • Weather Widgets
  • user-avatar
    Login

    Hourly Weather Borisovka

    Today, 19 August, Monday

    Time Temperature Precipitation Wind Pressure Humidity
    00:00 +15°C° 0 mm 2 mps 737 mmHg 99%
    01:00 +14°C° 0 mm 2 mps 737 mmHg 98%
    02:00 +14°C° 0 mm 2 mps 738 mmHg 98%
    03:00 +14°C° 0 mm 2 mps 738 mmHg 98%
    04:00 +14°C° 0 mm 2 mps 738 mmHg 98%
    05:00 +14°C° 0 mm 2 mps 739 mmHg 98%
    06:00 +15°C° 0 mm 2 mps 739 mmHg 97%
    07:00 +15°C° 0 mm 2 mps 739 mmHg 95%
    08:00 +15°C° 0 mm 2 mps 739 mmHg 94%
    09:00 +17°C° 0 mm 2 mps 740 mmHg 84%
    10:00 +19°C° 0 mm 2 mps 740 mmHg 75%
    11:00 +21°C° 0 mm 2 mps 740 mmHg 65%
    12:00 +23°C° 0 mm 2 mps 740 mmHg 62%
    13:00 +24°C° 0 mm 3 mps 740 mmHg 59%
    14:00 +25°C° 0 mm 3 mps 740 mmHg 56%
    15:00 +25°C° 0 mm 2 mps 740 mmHg 60%
    16:00 +25°C° 0 mm 2 mps 740 mmHg 65%
    17:00 +24°C° 0 mm 2 mps 741 mmHg 70%
    18:00 +23°C° 0 mm 2 mps 741 mmHg 77%
    19:00 +20°C° 0 mm 2 mps 741 mmHg 84%
    20:00 +18°C° 0 mm 2 mps 741 mmHg 91%
    21:00 +18°C° 0 mm 2 mps 741 mmHg 92%
    22:00 +18°C° 0 mm 2 mps 741 mmHg 94%
    23:00 +18°C° 0 mm 3 mps 741 mmHg 95%

    Tomorrow, 20 August, Tuesday

    Time Temperature Precipitation Wind Pressure Humidity
    00:00 +17°C° 0 mm 2 mps 741 mmHg 96%
    01:00 +17°C° 0 mm 2 mps 741 mmHg 97%
    02:00 +17°C° 0 mm 2 mps 741 mmHg 98%
    03:00 +17°C° 0.1 mm 2 mps 741 mmHg 98%
    04:00 +17°C° 0.1 mm 2 mps 742 mmHg 98%
    05:00 +17°C° 0.1 mm 2 mps 742 mmHg 98%
    06:00 +18°C° 0 mm 2 mps 742 mmHg 96%
    07:00 +19°C° 0 mm 2 mps 742 mmHg 94%
    08:00 +20°C° 0 mm 2 mps 743 mmHg 92%
    09:00 +21°C° 0.1 mm 2 mps 743 mmHg 89%
    10:00 +21°C° 0.1 mm 2 mps 743 mmHg 86%
    11:00 +23°C° 0.1 mm 2 mps 743 mmHg 84%
    12:00 +23°C° 0.7 mm 2 mps 743 mmHg 83%
    13:00 +23°C° 0.7 mm 2 mps 744 mmHg 82%
    14:00 +24°C° 0.7 mm 2 mps 744 mmHg 82%
    15:00 +24°C° 0.4 mm 2 mps 744 mmHg 82%
    16:00 +24°C° 0.4 mm 1 mps 744 mmHg 83%
    17:00 +24°C° 0.4 mm 1 mps 744 mmHg 84%
    18:00 +22°C° 0.1 mm 1 mps 744 mmHg 87%
    19:00 +20°C° 0.1 mm 1 mps 744 mmHg 91%
    20:00 +19°C° 0.1 mm 1 mps 745 mmHg 95%
    21:00 +18°C° 0 mm 1 mps 745 mmHg 95%
    22:00 +18°C° 0 mm 1 mps 745 mmHg 95%
    23:00 +16°C° 0 mm 1 mps 745 mmHg 96%

    Day after tomorrow, 21 August, Wednesday

    Time Temperature Precipitation Wind Pressure Humidity
    00:00 +16°C° 0 mm 1 mps 745 mmHg 96%
    01:00 +16°C° 0 mm 1 mps 746 mmHg 96%
    02:00 +15°C° 0 mm 1 mps 746 mmHg 97%
    03:00 +15°C° 0 mm 1 mps 746 mmHg 96%
    04:00 +15°C° 0 mm 1 mps 746 mmHg 96%
    05:00 +15°C° 0 mm 1 mps 746 mmHg 95%
    06:00 +16°C° 0 mm 2 mps 746 mmHg 92%
    07:00 +17°C° 0 mm 2 mps 746 mmHg 88%
    08:00 +18°C° 0 mm 2 mps 746 mmHg 85%
    09:00 +19°C° 0 mm 2 mps 746 mmHg 82%
    10:00 +20°C° 0 mm 2 mps 746 mmHg 79%
    11:00 +21°C° 0 mm 2 mps 746 mmHg 76%
    12:00 +21°C° 0 mm 2 mps 745 mmHg 78%
    13:00 +21°C° 0 mm 2 mps 745 mmHg 81%
    14:00 +23°C° 0 mm 2 mps 745 mmHg 83%
    15:00 +23°C° 0.2 mm 2 mps 744 mmHg 86%
    16:00 +23°C° 0.2 mm 2 mps 744 mmHg 88%
    17:00 +23°C° 0.2 mm 1 mps 744 mmHg 90%
    18:00 +21°C° 1.7 mm 2 mps 743 mmHg 92%
    19:00 +21°C° 1.7 mm 2 mps 743 mmHg 93%
    20:00 +20°C° 1.7 mm 2 mps 743 mmHg 95%
    21:00 +20°C° 0.7 mm 2 mps 743 mmHg 96%
    22:00 +19°C° 0.7 mm 2 mps 743 mmHg 97%
    23:00 +19°C° 0.7 mm 2 mps 743 mmHg 98%

    22 August, Thursday

    Time Temperature Precipitation Wind Pressure Humidity
    00:00 +18°C° 0.4 mm 2 mps 743 mmHg 98%
    01:00 +17°C° 0.4 mm 3 mps 743 mmHg 98%
    02:00 +16°C° 0.4 mm 3 mps 743 mmHg 98%
    03:00 +16°C° 0.3 mm 3 mps 743 mmHg 97%
    04:00 +14°C° 0.3 mm 3 mps 743 mmHg 97%
    05:00 +13°C° 0.3 mm 3 mps 743 mmHg 96%
    06:00 +14°C° 0 mm 3 mps 744 mmHg 95%
    07:00 +14°C° 0 mm 3 mps 744 mmHg 93%
    08:00 +16°C° 0 mm 3 mps 745 mmHg 91%
    09:00 +17°C° 0 mm 3 mps 745 mmHg 87%
    10:00 +17°C° 0 mm 3 mps 745 mmHg 83%
    11:00 +18°C° 0 mm 3 mps 745 mmHg 78%
    12:00 +19°C° 0 mm 3 mps 745 mmHg 74%
    13:00 +19°C° 0 mm 3 mps 745 mmHg 70%
    14:00 +20°C° 0 mm 3 mps 745 mmHg 66%
    15:00 +20°C° 0 mm 2 mps 745 mmHg 67%
    16:00 +20°C° 0 mm 2 mps 745 mmHg 68%
    17:00 +20°C° 0 mm 2 mps 745 mmHg 69%
    18:00 +19°C° 0 mm 1 mps 745 mmHg 76%
    19:00 +18°C° 0 mm 1 mps 745 mmHg 82%
    20:00 +15°C° 0 mm 1 mps 745 mmHg 88%
    21:00 +14°C° 0 mm 1 mps 745 mmHg 89%
    22:00 +14°C° 0 mm 1 mps 745 mmHg 90%
    23:00 +14°C° 0 mm 1 mps 746 mmHg 91%

    23 August, Friday

    Time Temperature Precipitation Wind Pressure Humidity
    00:00 +13°C° 0 mm 1 mps 746 mmHg 92%
    01:00 +13°C° 0 mm 1 mps 746 mmHg 94%
    02:00 +12°C° 0 mm 1 mps 746 mmHg 95%
    03:00 +12°C° 0 mm 1 mps 746 mmHg 95%
    04:00 +12°C° 0 mm 1 mps 746 mmHg 95%
    05:00 +11°C° 0 mm 1 mps 746 mmHg 95%
    06:00 +13°C° 0 mm 1 mps 746 mmHg 89%
    07:00 +15°C° 0 mm 1 mps 746 mmHg 82%
    08:00 +18°C° 0 mm 1 mps 746 mmHg 76%
    09:00 +19°C° 0.1 mm 1 mps 746 mmHg 72%
    10:00 +20°C° 0.1 mm 1 mps 746 mmHg 67%
    11:00 +21°C° 0.1 mm 1 mps 746 mmHg 63%
    12:00 +20°C° 0.5 mm 2 mps 746 mmHg 66%
    13:00 +20°C° 0.5 mm 2 mps 746 mmHg 70%
    14:00 +19°C° 0.5 mm 2 mps 746 mmHg 74%
    15:00 +19°C° 0.4 mm 2 mps 745 mmHg 75%
    16:00 +19°C° 0.4 mm 2 mps 745 mmHg 77%
    17:00 +18°C° 0.4 mm 2 mps 745 mmHg 79%
    18:00 +16°C° 0 mm 2 mps 746 mmHg 83%
    19:00 +15°C° 0 mm 2 mps 746 mmHg 88%
    20:00 +13°C° 0 mm 2 mps 746 mmHg 92%
    21:00 +12°C° 0 mm 2 mps 746 mmHg 94%
    22:00 +12°C° 0 mm 2 mps 746 mmHg 95%
    23:00 +10°C° 0 mm 2 mps 747 mmHg 96%

    24 August, Saturday

    Time Temperature Precipitation Wind Pressure Humidity
    00:00 +10°C° 0 mm 2 mps 747 mmHg 96%
    01:00 +10°C° 0 mm 2 mps 747 mmHg 97%
    02:00 +10°C° 0 mm 2 mps 747 mmHg 97%
    03:00 +9°C° 0 mm 2 mps 747 mmHg 96%
    04:00 +9°C° 0 mm 2 mps 747 mmHg 96%
    05:00 +10°C° 0 mm 1 mps 747 mmHg 96%
    06:00 +10°C° 0 mm 2 mps 748 mmHg 91%
    07:00 +13°C° 0 mm 2 mps 748 mmHg 86%
    08:00 +15°C° 0 mm 2 mps 748 mmHg 81%
    09:00 +16°C° 0 mm 2 mps 748 mmHg 72%
    10:00 +18°C° 0 mm 2 mps 748 mmHg 64%
    11:00 +20°C° 0 mm 2 mps 748 mmHg 55%
    12:00 +20°C° 0 mm 2 mps 748 mmHg 54%
    13:00 +21°C° 0 mm 2 mps 748 mmHg 52%
    14:00 +21°C° 0 mm 2 mps 748 mmHg 50%
    15:00 +21°C° 0 mm 2 mps 748 mmHg 55%
    16:00 +21°C° 0 mm 1 mps 748 mmHg 61%
    17:00 +21°C° 0 mm 1 mps 748 mmHg 66%
    18:00 +19°C° 0 mm 1 mps 748 mmHg 72%
    19:00 +16°C° 0 mm 1 mps 748 mmHg 77%
    20:00 +14°C° 0 mm 1 mps 748 mmHg 83%
    21:00 +13°C° 0 mm 1 mps 748 mmHg 85%
    22:00 +11°C° 0 mm 0 mps 748 mmHg 87%
    23:00 +11°C° 0 mm 0 mps 748 mmHg 89%
    Show more